Time,TemperatureF,DewpointF,PressureIn,WindDirection,WindDirectionDegrees,WindSpeedMPH,WindSpeedGustMPH,Humidity,HourlyPrecipIn,Conditions,Clouds,dailyrainin,SoftwareType,DateUTC
2013-12-18 00:01:00,16.9,14.7,29.93,SW,226,0.0,0.0,91,0.00,,,0.00,Wunderground v.1.12,2013-12-18 05:01:00,
2013-12-18 00:02:00,16.9,14.7,29.93,SW,226,0.0,0.0,91,0.00,,,0.00,Wunderground v.1.12,2013-12-18 05:02:00,
2013-12-18 00:04:00,16.9,15.0,29.93,SW,226,0.0,0.0,92,0.00,,,0.00,Wunderground v.1.12,2013-12-18 05:04:00,
2013-12-18 00:05:00,16.9,15.0,29.93,SW,227,0.0,0.0,92,0.00,,,0.00,Wunderground v.1.12,2013-12-18 05:05:00,
2013-12-18 00:07:00,16.9,15.0,29.93,SW,226,0.0,0.0,92,0.00,,,0.00,Wunderground v.1.12,2013-12-18 05:07:00,
2013-12-18 00:12:00,16.9,15.0,29.93,SW,235,0.0,0.0,92,0.00,,,0.00,Wunderground v.1.12,2013-12-18 05:12:00,
2013-12-18 00:19:00,16.6,13.9,29.93,SW,235,0.0,0.0,89,0.00,,,0.00,Wunderground v.1.12,2013-12-18 05:19:00,
2013-12-18 00:24:00,16.2,13.8,29.93,SW,235,0.0,1.0,90,0.00,,,0.00,Wunderground v.1.12,2013-12-18 05:24:00,
2013-12-18 00:29:00,15.4,12.7,29.93,SW,235,0.0,0.0,89,0.00,,,0.00,Wunderground v.1.12,2013-12-18 05:29:00,
2013-12-18 00:34:00,15.5,13.6,29.93,SW,232,0.0,0.0,92,0.00,,,0.00,Wunderground v.1.12,2013-12-18 05:34:00,
2013-12-18 00:40:00,16.9,15.5,29.94,SW,223,0.0,0.0,94,0.00,,,0.00,Wunderground v.1.12,2013-12-18 05:40:00,
2013-12-18 00:46:00,17.2,14.5,29.94,SW,223,0.0,0.0,89,0.00,,,0.00,Wunderground v.1.12,2013-12-18 05:46:00,
2013-12-18 00:51:00,15.8,12.9,29.94,SW,223,0.0,0.0,88,0.00,,,0.00,Wunderground v.1.12,2013-12-18 05:51:00,
2013-12-18 00:57:00,15.2,12.8,29.95,SW,234,0.0,0.0,90,0.00,,,0.00,Wunderground v.1.12,2013-12-18 05:57:00,
2013-12-18 01:04:00,16.1,14.4,29.95,SW,234,0.0,0.0,93,0.00,,,0.00,Wunderground v.1.12,2013-12-18 06:04:00,
2013-12-18 01:09:00,15.6,13.2,29.97,SW,234,0.0,0.0,90,0.00,,,0.00,Wunderground v.1.12,2013-12-18 06:09:00,
2013-12-18 01:14:00,15.1,12.7,29.97,SW,234,0.0,0.0,90,0.00,,,0.00,Wunderground v.1.12,2013-12-18 06:14:00,
2013-12-18 01:19:00,15.6,13.9,29.97,SW,234,0.0,0.0,93,0.00,,,0.00,Wunderground v.1.12,2013-12-18 06:19:00,
2013-12-18 01:25:00,17.0,15.6,29.97,SW,228,0.0,0.0,94,0.00,,,0.00,Wunderground v.1.12,2013-12-18 06:25:00,
2013-12-18 01:31:00,17.5,15.6,29.97,SW,229,0.0,0.0,92,0.00,,,0.00,Wunderground v.1.12,2013-12-18 06:31:00,
2013-12-18 01:36:00,17.7,15.8,29.97,SW,229,1.0,1.0,92,0.00,,,0.00,Wunderground v.1.12,2013-12-18 06:36:00,
2013-12-18 01:42:00,17.7,15.5,29.96,SW,229,0.0,0.0,91,0.00,,,0.00,Wunderground v.1.12,2013-12-18 06:42:00,
2013-12-18 01:47:00,17.5,15.1,29.96,SW,230,0.0,0.0,90,0.00,,,0.00,Wunderground v.1.12,2013-12-18 06:47:00,
2013-12-18 01:54:00,17.3,14.9,29.98,SW,232,0.0,0.0,90,0.00,,,0.00,Wunderground v.1.12,2013-12-18 06:54:00,
2013-12-18 01:59:00,16.6,13.9,29.98,SW,232,0.0,0.0,89,0.00,,,0.00,Wunderground v.1.12,2013-12-18 06:59:00,
2013-12-18 02:04:00,16.3,14.1,29.98,SW,232,0.0,0.0,91,0.00,,,0.00,Wunderground v.1.12,2013-12-18 07:04:00,
2013-12-18 02:09:00,16.5,14.6,29.98,SW,233,0.0,0.0,92,0.00,,,0.00,Wunderground v.1.12,2013-12-18 07:09:00,
2013-12-18 02:14:00,17.2,15.5,29.98,SW,233,0.0,0.0,93,0.00,,,0.00,Wunderground v.1.12,2013-12-18 07:14:00,
2013-12-18 02:19:00,17.0,14.8,29.98,SW,233,0.0,0.0,91,0.00,,,0.00,Wunderground v.1.12,2013-12-18 07:19:00,
2013-12-18 02:25:00,17.2,15.3,29.98,SW,233,0.0,0.0,92,0.00,,,0.00,Wunderground v.1.12,2013-12-18 07:25:00,
2013-12-18 02:30:00,17.5,15.6,29.98,SW,233,0.0,0.0,92,0.00,,,0.00,Wunderground v.1.12,2013-12-18 07:30:00,
2013-12-18 02:35:00,17.8,15.6,29.98,WSW,240,0.0,0.0,91,0.00,,,0.00,Wunderground v.1.12,2013-12-18 07:35:00,
2013-12-18 02:40:00,18.0,15.8,29.98,WSW,240,0.0,0.0,91,0.00,,,0.00,Wunderground v.1.12,2013-12-18 07:40:00,
2013-12-18 02:45:00,18.2,15.8,29.98,WSW,240,0.0,0.0,90,0.00,,,0.00,Wunderground v.1.12,2013-12-18 07:45:00,
2013-12-18 02:50:00,18.1,15.7,29.98,WSW,240,0.0,1.0,90,0.00,,,0.00,Wunderground v.1.12,2013-12-18 07:50:00,
2013-12-18 02:55:00,17.9,15.5,29.98,WSW,240,0.0,0.0,90,0.00,,,0.00,Wunderground v.1.12,2013-12-18 07:55:00,
2013-12-18 03:00:00,17.5,15.1,29.98,SW,226,0.0,0.0,90,0.00,,,0.00,Wunderground v.1.12,2013-12-18 08:00:00,
2013-12-18 03:05:00,16.7,14.3,29.98,SW,229,0.0,1.0,90,0.00,,,0.00,Wunderground v.1.12,2013-12-18 08:05:00,
2013-12-18 03:10:00,16.2,13.8,29.98,SW,229,0.0,0.0,90,0.00,,,0.00,Wunderground v.1.12,2013-12-18 08:10:00,
2013-12-18 03:15:00,15.8,13.6,29.98,SW,229,0.0,0.0,91,0.00,,,0.00,Wunderground v.1.12,2013-12-18 08:15:00,
2013-12-18 03:20:00,15.6,13.4,29.98,SW,229,0.0,0.0,91,0.00,,,0.00,Wunderground v.1.12,2013-12-18 08:20:00,
2013-12-18 03:25:00,15.7,14.0,29.98,SW,235,0.0,0.0,93,0.00,,,0.00,Wunderground v.1.12,2013-12-18 08:25:00,
2013-12-18 03:31:00,17.2,15.8,29.98,SW,235,0.0,0.0,94,0.00,,,0.00,Wunderground v.1.12,2013-12-18 08:31:00,
2013-12-18 03:36:00,17.8,15.6,29.98,SW,234,0.0,0.0,91,0.00,,,0.00,Wunderground v.1.12,2013-12-18 08:36:00,
2013-12-18 03:41:00,17.1,14.7,29.98,SW,234,0.0,0.0,90,0.00,,,0.00,Wunderground v.1.12,2013-12-18 08:41:00,
2013-12-18 03:46:00,16.7,14.3,29.98,SW,234,0.0,0.0,90,0.00,,,0.00,Wunderground v.1.12,2013-12-18 08:46:00,
2013-12-18 03:51:00,16.2,13.8,29.98,SW,234,0.0,0.0,90,0.00,,,0.00,Wunderground v.1.12,2013-12-18 08:51:00,
2013-12-18 03:56:00,15.9,13.7,29.98,SW,234,0.0,0.0,91,0.00,,,0.00,Wunderground v.1.12,2013-12-18 08:56:00,
2013-12-18 04:01:00,15.7,13.3,29.98,SW,234,0.0,0.0,90,0.00,,,0.00,Wunderground v.1.12,2013-12-18 09:01:00,
2013-12-18 04:06:00,15.1,12.7,29.98,SW,234,0.0,0.0,90,0.00,,,0.00,Wunderground v.1.12,2013-12-18 09:06:00,
2013-12-18 04:11:00,14.9,13.0,29.98,SW,234,0.0,0.0,92,0.00,,,0.00,Wunderground v.1.12,2013-12-18 09:11:00,
2013-12-18 04:16:00,15.1,13.4,29.98,SW,234,0.0,0.0,93,0.00,,,0.00,Wunderground v.1.12,2013-12-18 09:16:00,
2013-12-18 04:21:00,16.5,15.3,29.98,SW,224,0.0,0.0,95,0.00,,,0.00,Wunderground v.1.12,2013-12-18 09:21:00,
2013-12-18 04:26:00,17.7,16.3,29.98,SW,227,0.0,0.0,94,0.00,,,0.00,Wunderground v.1.12,2013-12-18 09:26:00,
2013-12-18 04:31:00,18.5,16.3,29.98,SW,227,0.0,0.0,91,0.00,,,0.00,Wunderground v.1.12,2013-12-18 09:31:00,
2013-12-18 04:36:00,18.5,16.3,29.98,SW,227,0.0,0.0,91,0.00,,,0.00,Wunderground v.1.12,2013-12-18 09:36:00,
2013-12-18 04:41:00,18.1,15.7,29.98,SW,227,0.0,0.0,90,0.00,,,0.00,Wunderground v.1.12,2013-12-18 09:41:00,
2013-12-18 04:46:00,17.8,15.4,29.98,SW,227,0.0,0.0,90,0.00,,,0.00,Wunderground v.1.12,2013-12-18 09:46:00,
2013-12-18 04:51:00,17.9,16.0,29.98,SW,227,0.0,0.0,92,0.00,,,0.00,Wunderground v.1.12,2013-12-18 09:51:00,
2013-12-18 04:56:00,18.5,16.6,29.99,SW,223,0.0,0.0,92,0.00,,,0.00,Wunderground v.1.12,2013-12-18 09:56:00,
2013-12-18 05:01:00,19.5,17.3,29.99,SW,219,0.0,0.0,91,0.00,,,0.00,Wunderground v.1.12,2013-12-18 10:01:00,
2013-12-18 05:06:00,19.9,17.2,29.99,SW,221,0.0,1.0,89,0.00,,,0.00,Wunderground v.1.12,2013-12-18 10:06:00,
2013-12-18 05:11:00,20.1,17.4,29.99,SW,229,0.0,1.0,89,0.00,,,0.00,Wunderground v.1.12,2013-12-18 10:11:00,
2013-12-18 05:16:00,20.4,17.7,29.99,SW,227,0.0,1.0,89,0.00,,,0.00,Wunderground v.1.12,2013-12-18 10:16:00,
2013-12-18 05:21:00,21.1,18.4,29.99,SW,227,0.0,0.0,89,0.00,,,0.00,Wunderground v.1.12,2013-12-18 10:21:00,
2013-12-18 05:27:00,21.4,18.4,30.00,SW,217,0.0,1.0,88,0.00,,,0.00,Wunderground v.1.12,2013-12-18 10:27:00,
2013-12-18 05:32:00,21.5,18.5,30.00,SW,215,0.0,0.0,88,0.00,,,0.00,Wunderground v.1.12,2013-12-18 10:32:00,
2013-12-18 05:37:00,21.5,18.5,30.00,SW,219,0.0,0.0,88,0.00,,,0.00,Wunderground v.1.12,2013-12-18 10:37:00,
2013-12-18 05:42:00,21.4,18.4,30.01,SW,217,0.0,1.0,88,0.00,,,0.00,Wunderground v.1.12,2013-12-18 10:42:00,
2013-12-18 05:47:00,21.3,18.3,30.01,SW,219,0.0,0.0,88,0.00,,,0.00,Wunderground v.1.12,2013-12-18 10:47:00,
2013-12-18 05:52:00,21.3,18.3,30.01,SW,225,0.0,1.0,88,0.00,,,0.00,Wunderground v.1.12,2013-12-18 10:52:00,
2013-12-18 05:57:00,21.4,18.4,30.01,SW,220,0.0,1.0,88,0.00,,,0.00,Wunderground v.1.12,2013-12-18 10:57:00,
2013-12-18 06:02:00,21.4,18.4,30.01,SW,220,0.0,0.0,88,0.00,,,0.00,Wunderground v.1.12,2013-12-18 11:02:00,
2013-12-18 06:07:00,21.2,18.2,30.01,SSW,207,0.0,0.0,88,0.00,,,0.00,Wunderground v.1.12,2013-12-18 11:07:00,
2013-12-18 06:12:00,21.1,18.1,30.01,SW,223,0.0,1.0,88,0.00,,,0.00,Wunderground v.1.12,2013-12-18 11:12:00,
2013-12-18 06:15:00,21.0,18.0,30.01,SSW,213,1.0,1.0,88,0.00,,,0.00,Wunderground v.1.12,2013-12-18 11:15:00,
2013-12-18 06:20:00,21.1,18.4,30.01,SW,221,0.0,3.0,89,0.00,,,0.00,Wunderground v.1.12,2013-12-18 11:20:00,
2013-12-18 06:25:00,21.0,18.0,30.02,SW,227,0.0,1.0,88,0.00,,,0.00,Wunderground v.1.12,2013-12-18 11:25:00,
2013-12-18 06:30:00,20.8,18.1,30.02,SW,221,0.0,1.0,89,0.00,,,0.00,Wunderground v.1.12,2013-12-18 11:30:00,
2013-12-18 06:35:00,20.5,17.8,30.02,SW,232,0.0,2.0,89,0.00,,,0.00,Wunderground v.1.12,2013-12-18 11:35:00,
2013-12-18 06:40:00,20.2,17.5,30.02,SW,225,0.0,1.0,89,0.00,,,0.00,Wunderground v.1.12,2013-12-18 11:40:00,
2013-12-18 06:45:00,20.1,17.6,30.02,SSW,212,0.0,0.0,90,0.00,,,0.00,Wunderground v.1.12,2013-12-18 11:45:00,
2013-12-18 06:50:00,20.3,17.8,30.02,SW,217,0.0,0.0,90,0.00,,,0.00,Wunderground v.1.12,2013-12-18 11:50:00,
2013-12-18 06:55:00,20.6,17.9,30.02,SSW,207,0.0,0.0,89,0.00,,,0.00,Wunderground v.1.12,2013-12-18 11:55:00,
2013-12-18 07:00:00,20.8,18.1,30.02,SW,229,0.0,0.0,89,0.00,,,0.00,Wunderground v.1.12,2013-12-18 12:00:00,
2013-12-18 07:05:00,21.0,18.3,30.02,SSW,199,1.0,1.0,89,0.00,,,0.00,Wunderground v.1.12,2013-12-18 12:05:00,
2013-12-18 07:10:00,21.2,18.5,30.02,SSW,204,1.0,1.0,89,0.00,,,0.00,Wunderground v.1.12,2013-12-18 12:10:00,
2013-12-18 07:15:00,21.3,18.3,30.02,SW,220,0.0,1.0,88,0.00,,,0.00,Wunderground v.1.12,2013-12-18 12:15:00,
2013-12-18 07:20:00,21.4,18.4,30.02,ESE,105,3.0,3.0,88,0.00,,,0.00,Wunderground v.1.12,2013-12-18 12:20:00,
2013-12-18 07:25:00,21.5,18.2,30.02,SE,137,1.0,1.0,87,0.00,,,0.00,Wunderground v.1.12,2013-12-18 12:25:00,
2013-12-18 07:30:00,21.7,18.4,30.02,South,175,1.0,2.0,87,0.00,,,0.00,Wunderground v.1.12,2013-12-18 12:30:00,
2013-12-18 07:35:00,21.8,18.5,30.02,SSW,210,1.0,1.0,87,0.00,,,0.00,Wunderground v.1.12,2013-12-18 12:35:00,
2013-12-18 07:41:00,21.7,18.4,30.03,SSW,205,1.0,1.0,87,0.00,,,0.00,Wunderground v.1.12,2013-12-18 12:41:00,
2013-12-18 07:46:00,21.8,18.5,30.03,SSW,195,1.0,2.0,87,0.00,,,0.00,Wunderground v.1.12,2013-12-18 12:46:00,
2013-12-18 07:51:00,21.9,18.4,30.03,South,169,1.0,3.0,86,0.00,,,0.00,Wunderground v.1.12,2013-12-18 12:51:00,
2013-12-18 07:56:00,22.0,18.5,30.04,SSW,213,1.0,2.0,86,0.00,,,0.00,Wunderground v.1.12,2013-12-18 12:56:00,
2013-12-18 08:01:00,22.0,18.5,30.04,SE,134,3.0,3.0,86,0.00,,,0.00,Wunderground v.1.12,2013-12-18 13:01:00,
2013-12-18 08:06:00,22.0,18.2,30.04,South,188,1.0,1.0,85,0.00,,,0.00,Wunderground v.1.12,2013-12-18 13:06:00,
2013-12-18 08:11:00,22.1,18.3,30.04,SSE,167,1.0,2.0,85,0.00,,,0.00,Wunderground v.1.12,2013-12-18 13:11:00,
2013-12-18 08:16:00,22.3,18.5,30.04,SW,218,1.0,2.0,85,0.00,,,0.00,Wunderground v.1.12,2013-12-18 13:16:00,
2013-12-18 08:21:00,22.5,18.4,30.04,South,186,1.0,1.0,84,0.00,,,0.00,Wunderground v.1.12,2013-12-18 13:21:00,
2013-12-18 08:26:00,22.7,18.6,30.04,SSW,198,1.0,2.0,84,0.00,,,0.00,Wunderground v.1.12,2013-12-18 13:26:00,
2013-12-18 08:31:00,22.9,18.5,30.04,SSW,202,1.0,2.0,83,0.00,,,0.00,Wunderground v.1.12,2013-12-18 13:31:00,
2013-12-18 08:36:00,23.2,18.8,30.04,SW,220,0.0,2.0,83,0.00,,,0.00,Wunderground v.1.12,2013-12-18 13:36:00,
2013-12-18 08:41:00,23.2,18.8,30.05,South,190,2.0,2.0,83,0.00,,,0.00,Wunderground v.1.12,2013-12-18 13:41:00,
2013-12-18 08:46:00,23.4,19.0,30.05,SSE,157,1.0,3.0,83,0.00,,,0.00,Wunderground v.1.12,2013-12-18 13:46:00,
2013-12-18 08:51:00,23.5,19.1,30.05,SE,146,1.0,1.0,83,0.00,,,0.00,Wunderground v.1.12,2013-12-18 13:51:00,
2013-12-18 08:57:00,23.6,19.2,30.05,SSW,205,1.0,2.0,83,0.00,,,0.00,Wunderground v.1.12,2013-12-18 13:57:00,
2013-12-18 09:02:00,23.6,19.2,30.05,SW,219,0.0,1.0,83,0.00,,,0.00,Wunderground v.1.12,2013-12-18 14:02:00,
2013-12-18 09:07:00,23.6,19.2,30.05,WSW,246,0.0,1.0,83,0.00,,,0.00,Wunderground v.1.12,2013-12-18 14:07:00,
2013-12-18 09:12:00,23.6,19.2,30.06,SSW,200,0.0,1.0,83,0.00,,,0.00,Wunderground v.1.12,2013-12-18 14:12:00,
2013-12-18 09:17:00,23.8,19.4,30.06,SW,221,0.0,1.0,83,0.00,,,0.00,Wunderground v.1.12,2013-12-18 14:17:00,
2013-12-18 09:23:00,23.8,19.4,30.06,South,178,1.0,1.0,83,0.00,,,0.00,Wunderground v.1.12,2013-12-18 14:23:00,
2013-12-18 09:28:00,24.0,19.6,30.07,SW,216,1.0,1.0,83,0.00,,,0.00,Wunderground v.1.12,2013-12-18 14:28:00,
2013-12-18 09:33:00,24.3,19.9,30.07,SW,229,0.0,2.0,83,0.00,,,0.00,Wunderground v.1.12,2013-12-18 14:33:00,
2013-12-18 09:38:00,24.7,20.0,30.07,WNW,293,1.0,1.0,82,0.00,,,0.00,Wunderground v.1.12,2013-12-18 14:38:00,
2013-12-18 09:43:00,25.2,20.5,30.07,SSW,209,0.0,2.0,82,0.00,,,0.00,Wunderground v.1.12,2013-12-18 14:43:00,
2013-12-18 09:48:00,25.7,20.7,30.07,WSW,253,0.0,1.0,81,0.00,,,0.00,Wunderground v.1.12,2013-12-18 14:48:00,
2013-12-18 09:53:00,25.9,20.9,30.07,SW,221,1.0,1.0,81,0.00,,,0.00,Wunderground v.1.12,2013-12-18 14:53:00,
2013-12-18 09:58:00,26.0,20.7,30.07,SSW,207,1.0,2.0,80,0.00,,,0.00,Wunderground v.1.12,2013-12-18 14:58:00,
2013-12-18 10:03:00,26.1,20.8,30.07,SW,223,0.0,1.0,80,0.00,,,0.00,Wunderground v.1.12,2013-12-18 15:03:00,
2013-12-18 10:08:00,26.2,20.9,30.07,SSW,192,1.0,3.0,80,0.00,,,0.00,Wunderground v.1.12,2013-12-18 15:08:00,
2013-12-18 10:13:00,26.3,21.0,30.07,SSW,209,1.0,2.0,80,0.00,,,0.00,Wunderground v.1.12,2013-12-18 15:13:00,
2013-12-18 10:18:00,26.5,20.9,30.07,SW,227,0.0,1.0,79,0.00,,,0.00,Wunderground v.1.12,2013-12-18 15:18:00,
2013-12-18 10:23:00,26.5,20.9,30.07,WSW,248,1.0,2.0,79,0.00,,,0.00,Wunderground v.1.12,2013-12-18 15:23:00,
2013-12-18 10:29:00,26.7,20.8,30.07,SW,215,0.0,2.0,78,0.00,,,0.00,Wunderground v.1.12,2013-12-18 15:29:00,
2013-12-18 10:34:00,26.7,20.8,30.07,SSW,213,1.0,2.0,78,0.00,,,0.00,Wunderground v.1.12,2013-12-18 15:34:00,
2013-12-18 10:39:00,27.0,21.1,30.07,SW,219,0.0,1.0,78,0.00,,,0.00,Wunderground v.1.12,2013-12-18 15:39:00,
2013-12-18 10:44:00,27.2,21.2,30.07,SSW,196,1.0,2.0,78,0.00,,,0.00,Wunderground v.1.12,2013-12-18 15:44:00,
2013-12-18 10:49:00,27.1,20.8,30.07,South,184,1.0,3.0,77,0.00,,,0.00,Wunderground v.1.12,2013-12-18 15:49:00,
2013-12-18 10:54:00,27.3,21.3,30.06,NE,36,3.0,3.0,78,0.00,,,0.00,Wunderground v.1.12,2013-12-18 15:54:00,
2013-12-18 10:59:00,27.4,21.1,30.06,SW,221,1.0,2.0,77,0.00,,,0.00,Wunderground v.1.12,2013-12-18 15:59:00,
2013-12-18 11:05:00,27.5,21.2,30.06,SSW,205,0.0,2.0,77,0.00,,,0.00,Wunderground v.1.12,2013-12-18 16:05:00,
2013-12-18 11:10:00,27.8,21.2,30.06,ESE,107,3.0,4.0,76,0.00,,,0.00,Wunderground v.1.12,2013-12-18 16:10:00,
2013-12-18 11:15:00,28.1,21.2,30.06,ENE,76,1.0,3.0,75,0.00,,,0.00,Wunderground v.1.12,2013-12-18 16:15:00,
2013-12-18 11:20:00,28.3,21.1,30.06,SSW,204,1.0,3.0,74,0.00,,,0.00,Wunderground v.1.12,2013-12-18 16:20:00,
2013-12-18 11:25:00,28.6,21.4,30.06,SE,140,2.0,2.0,74,0.00,,,0.00,Wunderground v.1.12,2013-12-18 16:25:00,
2013-12-18 11:30:00,29.0,21.1,30.06,South,186,2.0,2.0,72,0.00,,,0.00,Wunderground v.1.12,2013-12-18 16:30:00,
2013-12-18 11:36:00,29.2,21.3,30.06,South,176,1.0,1.0,72,0.00,,,0.00,Wunderground v.1.12,2013-12-18 16:36:00,
2013-12-18 11:41:00,29.5,21.3,30.06,SW,214,1.0,2.0,71,0.00,,,0.00,Wunderground v.1.12,2013-12-18 16:41:00,
2013-12-18 11:46:00,29.8,21.2,30.06,SE,146,2.0,2.0,70,0.00,,,0.00,Wunderground v.1.12,2013-12-18 16:46:00,
2013-12-18 11:51:00,29.9,21.3,30.06,SW,215,1.0,2.0,70,0.00,,,0.00,Wunderground v.1.12,2013-12-18 16:51:00,
2013-12-18 11:56:00,30.2,21.2,30.06,SSW,200,1.0,2.0,69,0.00,,,0.00,Wunderground v.1.12,2013-12-18 16:56:00,
2013-12-18 12:01:00,30.3,21.3,30.06,South,171,2.0,2.0,69,0.00,,,0.00,Wunderground v.1.12,2013-12-18 17:01:00,
2013-12-18 12:06:00,30.5,21.2,30.06,SSW,211,1.0,2.0,68,0.00,,,0.00,Wunderground v.1.12,2013-12-18 17:06:00,
2013-12-18 12:11:00,30.5,21.2,30.06,NNW,338,2.0,2.0,68,0.00,,,0.00,Wunderground v.1.12,2013-12-18 17:11:00,
2013-12-18 12:16:00,30.7,20.7,30.06,SW,225,0.0,2.0,66,0.00,,,0.00,Wunderground v.1.12,2013-12-18 17:16:00,
2013-12-18 12:21:00,30.9,20.5,30.06,SSE,153,3.0,3.0,65,0.00,,,0.00,Wunderground v.1.12,2013-12-18 17:21:00,
2013-12-18 12:26:00,31.0,20.2,30.06,SSW,207,1.0,2.0,64,0.00,,,0.00,Wunderground v.1.12,2013-12-18 17:26:00,
2013-12-18 12:31:00,31.2,20.4,30.06,SSW,205,1.0,2.0,64,0.00,,,0.00,Wunderground v.1.12,2013-12-18 17:31:00,
2013-12-18 12:36:00,31.2,20.1,30.06,East,80,3.0,3.0,63,0.00,,,0.00,Wunderground v.1.12,2013-12-18 17:36:00,
2013-12-18 12:41:00,31.4,20.2,30.05,South,173,1.0,4.0,63,0.00,,,0.00,Wunderground v.1.12,2013-12-18 17:41:00,
2013-12-18 12:46:00,31.4,20.2,30.05,East,82,3.0,3.0,63,0.00,,,0.00,Wunderground v.1.12,2013-12-18 17:46:00,
2013-12-18 12:51:00,31.1,20.3,30.05,South,187,2.0,2.0,64,0.00,,,0.00,Wunderground v.1.12,2013-12-18 17:51:00,
2013-12-18 12:57:00,30.6,20.2,30.05,SW,214,3.0,3.0,65,0.00,,,0.00,Wunderground v.1.12,2013-12-18 17:57:00,
2013-12-18 13:02:00,30.5,20.1,30.05,South,179,2.0,4.0,65,0.00,,,0.00,Wunderground v.1.12,2013-12-18 18:02:00,
2013-12-18 13:07:00,30.5,19.8,30.05,SSW,206,1.0,6.0,64,0.00,,,0.00,Wunderground v.1.12,2013-12-18 18:07:00,
2013-12-18 13:12:00,30.6,19.9,30.05,SE,138,2.0,2.0,64,0.00,,,0.00,Wunderground v.1.12,2013-12-18 18:12:00,
2013-12-18 13:17:00,30.6,19.9,30.05,ESE,115,3.0,4.0,64,0.00,,,0.00,Wunderground v.1.12,2013-12-18 18:17:00,
2013-12-18 13:22:00,30.8,20.0,30.05,SSW,207,1.0,3.0,64,0.00,,,0.00,Wunderground v.1.12,2013-12-18 18:22:00,
2013-12-18 13:27:00,30.9,20.1,30.05,SSW,204,1.0,2.0,64,0.00,,,0.00,Wunderground v.1.12,2013-12-18 18:27:00,
2013-12-18 13:32:00,30.9,20.1,30.05,SSW,197,2.0,3.0,64,0.00,,,0.00,Wunderground v.1.12,2013-12-18 18:32:00,
2013-12-18 13:37:00,30.8,19.7,30.05,SSW,205,3.0,4.0,63,0.00,,,0.00,Wunderground v.1.12,2013-12-18 18:37:00,
2013-12-18 13:42:00,30.5,19.8,30.06,SE,140,2.0,3.0,64,0.00,,,0.00,Wunderground v.1.12,2013-12-18 18:42:00,
2013-12-18 13:47:00,30.4,19.7,30.06,SW,214,0.0,2.0,64,0.00,,,0.00,Wunderground v.1.12,2013-12-18 18:47:00,
2013-12-18 13:53:00,30.3,19.6,30.06,SW,230,0.0,1.0,64,0.00,,,0.00,Wunderground v.1.12,2013-12-18 18:53:00,
2013-12-18 13:58:00,30.5,19.8,30.06,SW,216,1.0,2.0,64,0.00,,,0.00,Wunderground v.1.12,2013-12-18 18:58:00,
2013-12-18 14:03:00,30.5,19.8,30.06,SSW,201,2.0,3.0,64,0.00,,,0.00,Wunderground v.1.12,2013-12-18 19:03:00,
2013-12-18 14:08:00,30.5,19.4,30.06,SW,220,0.0,2.0,63,0.00,,,0.00,Wunderground v.1.12,2013-12-18 19:08:00,
2013-12-18 14:13:00,30.2,19.5,30.06,SW,217,1.0,3.0,64,0.00,,,0.00,Wunderground v.1.12,2013-12-18 19:13:00,
2013-12-18 14:18:00,30.2,19.5,30.06,SSW,192,1.0,3.0,64,0.00,,,0.00,Wunderground v.1.12,2013-12-18 19:18:00,
2013-12-18 14:23:00,30.2,19.5,30.06,SSW,208,1.0,1.0,64,0.00,,,0.00,Wunderground v.1.12,2013-12-18 19:23:00,
2013-12-18 14:28:00,30.3,19.6,30.07,SSE,163,2.0,3.0,64,0.00,,,0.00,Wunderground v.1.12,2013-12-18 19:28:00,
2013-12-18 14:33:00,30.4,19.7,30.07,East,79,3.0,4.0,64,0.00,,,0.00,Wunderground v.1.12,2013-12-18 19:33:00,
2013-12-18 14:38:00,30.3,19.6,30.07,SW,217,1.0,4.0,64,0.00,,,0.00,Wunderground v.1.12,2013-12-18 19:38:00,
2013-12-18 14:43:00,30.4,19.7,30.07,SW,216,2.0,2.0,64,0.00,,,0.00,Wunderground v.1.12,2013-12-18 19:43:00,
2013-12-18 14:48:00,30.4,19.7,30.07,SSW,205,1.0,4.0,64,0.00,,,0.00,Wunderground v.1.12,2013-12-18 19:48:00,
2013-12-18 14:53:00,30.6,19.5,30.07,SE,145,2.0,3.0,63,0.00,,,0.00,Wunderground v.1.12,2013-12-18 19:53:00,
2013-12-18 14:59:00,30.6,19.5,30.07,SW,224,0.0,3.0,63,0.00,,,0.00,Wunderground v.1.12,2013-12-18 19:59:00,
2013-12-18 15:04:00,30.4,19.3,30.07,SW,219,0.0,3.0,63,0.00,,,0.00,Wunderground v.1.12,2013-12-18 20:04:00,
2013-12-18 15:09:00,30.1,19.0,30.08,SSW,198,1.0,2.0,63,0.00,,,0.00,Wunderground v.1.12,2013-12-18 20:09:00,
2013-12-18 15:14:00,30.0,19.3,30.08,SW,219,1.0,1.0,64,0.00,,,0.00,Wunderground v.1.12,2013-12-18 20:14:00,
2013-12-18 15:20:00,30.0,19.3,30.08,SW,218,0.0,0.0,64,0.00,,,0.00,Wunderground v.1.12,2013-12-18 20:20:00,
2013-12-18 15:25:00,30.1,19.4,30.09,SW,221,0.0,1.0,64,0.00,,,0.00,Wunderground v.1.12,2013-12-18 20:25:00,
2013-12-18 15:30:00,30.1,19.4,30.09,SW,223,0.0,1.0,64,0.00,,,0.00,Wunderground v.1.12,2013-12-18 20:30:00,
2013-12-18 15:35:00,30.0,19.3,30.09,SW,224,0.0,1.0,64,0.00,,,0.00,Wunderground v.1.12,2013-12-18 20:35:00,
2013-12-18 15:40:00,30.1,19.4,30.09,SW,223,0.0,1.0,64,0.00,,,0.00,Wunderground v.1.12,2013-12-18 20:40:00,
2013-12-18 15:45:00,30.1,19.7,30.09,SW,222,0.0,3.0,65,0.00,,,0.00,Wunderground v.1.12,2013-12-18 20:45:00,
2013-12-18 15:50:00,30.0,19.7,30.09,SSW,213,1.0,1.0,65,0.00,,,0.00,Wunderground v.1.12,2013-12-18 20:50:00,
2013-12-18 15:55:00,29.9,19.9,30.10,South,176,1.0,1.0,66,0.00,,,0.00,Wunderground v.1.12,2013-12-18 20:55:00,
2013-12-18 16:00:00,29.9,19.9,30.10,SW,223,0.0,4.0,66,0.00,,,0.00,Wunderground v.1.12,2013-12-18 21:00:00,
2013-12-18 16:05:00,29.7,19.7,30.10,SW,219,0.0,1.0,66,0.00,,,0.00,Wunderground v.1.12,2013-12-18 21:05:00,
2013-12-18 16:10:00,29.5,19.5,30.10,SW,215,1.0,1.0,66,0.00,,,0.00,Wunderground v.1.12,2013-12-18 21:10:00,
2013-12-18 16:15:00,29.5,19.9,30.10,SW,219,0.0,0.0,67,0.00,,,0.00,Wunderground v.1.12,2013-12-18 21:15:00,
2013-12-18 16:20:00,29.3,20.0,30.10,SSW,205,1.0,1.0,68,0.00,,,0.00,Wunderground v.1.12,2013-12-18 21:20:00,
2013-12-18 16:25:00,29.2,20.3,30.11,SSW,209,1.0,1.0,69,0.00,,,0.00,Wunderground v.1.12,2013-12-18 21:25:00,
2013-12-18 16:31:00,29.2,19.9,30.11,SSE,157,2.0,2.0,68,0.00,,,0.00,Wunderground v.1.12,2013-12-18 21:31:00,
2013-12-18 16:36:00,29.3,20.0,30.11,SW,217,0.0,1.0,68,0.00,,,0.00,Wunderground v.1.12,2013-12-18 21:36:00,
2013-12-18 16:41:00,29.2,19.9,30.11,SW,230,1.0,2.0,68,0.00,,,0.00,Wunderground v.1.12,2013-12-18 21:41:00,
2013-12-18 16:46:00,29.2,19.6,30.11,West,264,1.0,1.0,67,0.00,,,0.00,Wunderground v.1.12,2013-12-18 21:46:00,
2013-12-18 16:51:00,29.0,19.8,30.11,SSW,211,0.0,1.0,68,0.00,,,0.00,Wunderground v.1.12,2013-12-18 21:51:00,
2013-12-18 16:56:00,28.9,19.3,30.11,SSW,206,1.0,1.0,67,0.00,,,0.00,Wunderground v.1.12,2013-12-18 21:56:00,
2013-12-18 17:01:00,28.9,19.3,30.11,SSW,213,0.0,1.0,67,0.00,,,0.00,Wunderground v.1.12,2013-12-18 22:01:00,
2013-12-18 17:06:00,28.9,19.3,30.11,SSW,194,1.0,2.0,67,0.00,,,0.00,Wunderground v.1.12,2013-12-18 22:06:00,
2013-12-18 17:11:00,28.7,19.1,30.11,SSW,198,1.0,1.0,67,0.00,,,0.00,Wunderground v.1.12,2013-12-18 22:11:00,
2013-12-18 17:16:00,28.6,19.0,30.11,South,186,1.0,2.0,67,0.00,,,0.00,Wunderground v.1.12,2013-12-18 22:16:00,
2013-12-18 17:21:00,28.5,18.9,30.11,SW,221,0.0,1.0,67,0.00,,,0.00,Wunderground v.1.12,2013-12-18 22:21:00,
2013-12-18 17:26:00,28.4,18.8,30.12,SW,219,0.0,1.0,67,0.00,,,0.00,Wunderground v.1.12,2013-12-18 22:26:00,
2013-12-18 17:31:00,28.4,18.8,30.12,SW,217,0.0,1.0,67,0.00,,,0.00,Wunderground v.1.12,2013-12-18 22:31:00,
2013-12-18 17:36:00,28.3,18.7,30.12,SW,227,0.0,0.0,67,0.00,,,0.00,Wunderground v.1.12,2013-12-18 22:36:00,
2013-12-18 17:41:00,28.1,18.9,30.12,SW,227,0.0,0.0,68,0.00,,,0.00,Wunderground v.1.12,2013-12-18 22:41:00,
2013-12-18 17:46:00,27.9,18.7,30.12,SSW,213,0.0,1.0,68,0.00,,,0.00,Wunderground v.1.12,2013-12-18 22:46:00,
2013-12-18 17:52:00,27.9,18.7,30.12,SW,219,0.0,0.0,68,0.00,,,0.00,Wunderground v.1.12,2013-12-18 22:52:00,
2013-12-18 17:56:00,27.8,18.9,30.13,SW,220,0.0,1.0,69,0.00,,,0.00,Wunderground v.1.12,2013-12-18 22:56:00,
2013-12-18 18:02:00,27.7,18.8,30.13,WSW,243,0.0,1.0,69,0.00,,,0.00,Wunderground v.1.12,2013-12-18 23:02:00,
2013-12-18 18:07:00,27.5,18.7,30.13,SW,230,0.0,0.0,69,0.00,,,0.00,Wunderground v.1.12,2013-12-18 23:07:00,
2013-12-18 18:12:00,27.4,18.9,30.13,SSW,196,1.0,2.0,70,0.00,,,0.00,Wunderground v.1.12,2013-12-18 23:12:00,
2013-12-18 18:17:00,27.7,18.8,30.13,SSW,209,1.0,1.0,69,0.00,,,0.00,Wunderground v.1.12,2013-12-18 23:17:00,
2013-12-18 18:22:00,27.6,18.8,30.13,SW,223,0.0,1.0,69,0.00,,,0.00,Wunderground v.1.12,2013-12-18 23:22:00,
2013-12-18 18:27:00,27.6,18.8,30.14,SW,219,0.0,1.0,69,0.00,,,0.00,Wunderground v.1.12,2013-12-18 23:27:00,
2013-12-18 18:32:00,27.7,18.8,30.14,SSW,192,1.0,1.0,69,0.00,,,0.00,Wunderground v.1.12,2013-12-18 23:32:00,
2013-12-18 18:37:00,27.9,18.7,30.14,SSW,207,0.0,2.0,68,0.00,,,0.00,Wunderground v.1.12,2013-12-18 23:37:00,
2013-12-18 18:42:00,27.9,18.7,30.14,SW,221,0.0,2.0,68,0.00,,,0.00,Wunderground v.1.12,2013-12-18 23:42:00,
2013-12-18 18:47:00,27.8,18.6,30.14,SW,228,0.0,1.0,68,0.00,,,0.00,Wunderground v.1.12,2013-12-18 23:47:00,
2013-12-18 18:52:00,27.7,18.8,30.14,SW,225,0.0,1.0,69,0.00,,,0.00,Wunderground v.1.12,2013-12-18 23:52:00,
2013-12-18 18:57:00,27.7,18.8,30.14,SW,216,0.0,1.0,69,0.00,,,0.00,Wunderground v.1.12,2013-12-18 23:57:00,
2013-12-18 19:02:00,27.5,18.7,30.14,SSW,194,1.0,1.0,69,0.00,,,0.00,Wunderground v.1.12,2013-12-19 00:02:00,
2013-12-18 19:08:00,27.6,18.8,30.14,SSW,194,1.0,2.0,69,0.00,,,0.00,Wunderground v.1.12,2013-12-19 00:08:00,
2013-12-18 19:13:00,27.7,18.5,30.14,SW,216,0.0,2.0,68,0.00,,,0.00,Wunderground v.1.12,2013-12-19 00:13:00,
2013-12-18 19:18:00,27.7,18.5,30.14,SSW,210,1.0,1.0,68,0.00,,,0.00,Wunderground v.1.12,2013-12-19 00:18:00,
2013-12-18 19:23:00,27.5,18.3,30.14,SSW,207,1.0,1.0,68,0.00,,,0.00,Wunderground v.1.12,2013-12-19 00:23:00,
2013-12-18 19:28:00,27.5,18.3,30.15,South,169,1.0,1.0,68,0.00,,,0.00,Wunderground v.1.12,2013-12-19 00:28:00,
2013-12-18 19:33:00,27.5,18.3,30.15,SSW,205,0.0,1.0,68,0.00,,,0.00,Wunderground v.1.12,2013-12-19 00:33:00,
2013-12-18 19:38:00,27.5,18.3,30.15,SW,225,0.0,1.0,68,0.00,,,0.00,Wunderground v.1.12,2013-12-19 00:38:00,
2013-12-18 19:43:00,27.5,18.0,30.15,SW,215,0.0,1.0,67,0.00,,,0.00,Wunderground v.1.12,2013-12-19 00:43:00,
2013-12-18 19:48:00,27.4,17.9,30.15,SW,221,0.0,1.0,67,0.00,,,0.00,Wunderground v.1.12,2013-12-19 00:48:00,
2013-12-18 19:53:00,27.3,18.1,30.16,SW,217,0.0,0.0,68,0.00,,,0.00,Wunderground v.1.12,2013-12-19 00:53:00,
2013-12-18 19:58:00,27.2,18.0,30.16,SW,226,0.0,1.0,68,0.00,,,0.00,Wunderground v.1.12,2013-12-19 00:58:00,
2013-12-18 20:03:00,27.0,17.8,30.16,SSW,207,0.0,1.0,68,0.00,,,0.00,Wunderground v.1.12,2013-12-19 01:03:00,
2013-12-18 20:08:00,27.0,17.8,30.16,South,186,1.0,1.0,68,0.00,,,0.00,Wunderground v.1.12,2013-12-19 01:08:00,
2013-12-18 20:13:00,27.0,17.8,30.16,SSW,208,1.0,1.0,68,0.00,,,0.00,Wunderground v.1.12,2013-12-19 01:13:00,
2013-12-18 20:18:00,26.9,18.1,30.16,SSW,211,0.0,1.0,69,0.00,,,0.00,Wunderground v.1.12,2013-12-19 01:18:00,
2013-12-18 20:23:00,26.8,18.0,30.16,SW,223,0.0,1.0,69,0.00,,,0.00,Wunderground v.1.12,2013-12-19 01:23:00,
2013-12-18 20:29:00,26.6,18.1,30.16,SW,231,0.0,0.0,70,0.00,,,0.00,Wunderground v.1.12,2013-12-19 01:29:00,
2013-12-18 20:34:00,26.5,18.0,30.16,SW,234,0.0,1.0,70,0.00,,,0.00,Wunderground v.1.12,2013-12-19 01:34:00,
2013-12-18 20:39:00,26.7,18.2,30.15,SSW,203,1.0,1.0,70,0.00,,,0.00,Wunderground v.1.12,2013-12-19 01:39:00,
2013-12-18 20:44:00,26.5,18.0,30.15,SW,229,0.0,1.0,70,0.00,,,0.00,Wunderground v.1.12,2013-12-19 01:44:00,
2013-12-18 20:49:00,26.2,18.1,30.15,SW,225,0.0,0.0,71,0.00,,,0.00,Wunderground v.1.12,2013-12-19 01:49:00,
2013-12-18 20:54:00,26.2,18.1,30.15,SW,219,0.0,1.0,71,0.00,,,0.00,Wunderground v.1.12,2013-12-19 01:54:00,
2013-12-18 21:00:00,26.2,18.1,30.15,SW,218,0.0,0.0,71,0.00,,,0.00,Wunderground v.1.12,2013-12-19 02:00:00,
2013-12-18 21:05:00,26.4,18.3,30.15,South,187,1.0,1.0,71,0.00,,,0.00,Wunderground v.1.12,2013-12-19 02:05:00,
2013-12-18 21:10:00,26.4,18.3,30.15,SW,225,0.0,1.0,71,0.00,,,0.00,Wunderground v.1.12,2013-12-19 02:10:00,
2013-12-18 21:15:00,26.4,17.9,30.15,SW,226,0.0,1.0,70,0.00,,,0.00,Wunderground v.1.12,2013-12-19 02:15:00,
2013-12-18 21:20:00,26.4,18.3,30.15,SW,221,0.0,0.0,71,0.00,,,0.00,Wunderground v.1.12,2013-12-19 02:20:00,
2013-12-18 21:25:00,26.3,18.2,30.15,SW,229,0.0,1.0,71,0.00,,,0.00,Wunderground v.1.12,2013-12-19 02:25:00,
2013-12-18 21:30:00,26.3,18.2,30.15,SW,218,0.0,1.0,71,0.00,,,0.00,Wunderground v.1.12,2013-12-19 02:30:00,
2013-12-18 21:35:00,26.4,18.3,30.15,SW,218,0.0,1.0,71,0.00,,,0.00,Wunderground v.1.12,2013-12-19 02:35:00,
2013-12-18 21:40:00,26.3,18.2,30.15,SW,229,0.0,0.0,71,0.00,,,0.00,Wunderground v.1.12,2013-12-19 02:40:00,
2013-12-18 21:45:00,26.2,18.1,30.15,SW,219,0.0,1.0,71,0.00,,,0.00,Wunderground v.1.12,2013-12-19 02:45:00,
2013-12-18 21:50:00,26.0,17.9,30.15,SW,222,0.0,0.0,71,0.00,,,0.00,Wunderground v.1.12,2013-12-19 02:50:00,
2013-12-18 21:55:00,25.9,17.8,30.15,SW,228,0.0,1.0,71,0.00,,,0.00,Wunderground v.1.12,2013-12-19 02:55:00,
2013-12-18 22:00:00,25.8,17.7,30.15,SW,228,0.0,0.0,71,0.00,,,0.00,Wunderground v.1.12,2013-12-19 03:00:00,
2013-12-18 22:05:00,25.6,17.8,30.15,SSW,210,0.0,0.0,72,0.00,,,0.00,Wunderground v.1.12,2013-12-19 03:05:00,
2013-12-18 22:11:00,25.7,17.9,30.16,SW,215,0.0,0.0,72,0.00,,,0.00,Wunderground v.1.12,2013-12-19 03:11:00,
2013-12-18 22:16:00,25.4,17.6,30.16,SW,219,0.0,0.0,72,0.00,,,0.00,Wunderground v.1.12,2013-12-19 03:16:00,
2013-12-18 22:21:00,25.4,17.6,30.16,SW,221,0.0,0.0,72,0.00,,,0.00,Wunderground v.1.12,2013-12-19 03:21:00,
2013-12-18 22:26:00,25.5,17.7,30.15,SW,217,0.0,1.0,72,0.00,,,0.00,Wunderground v.1.12,2013-12-19 03:26:00,
2013-12-18 22:31:00,25.6,17.8,30.15,SW,222,0.0,0.0,72,0.00,,,0.00,Wunderground v.1.12,2013-12-19 03:31:00,
2013-12-18 22:36:00,25.5,17.7,30.15,SW,227,0.0,0.0,72,0.00,,,0.00,Wunderground v.1.12,2013-12-19 03:36:00,
2013-12-18 22:41:00,25.5,17.7,30.15,North,350,2.0,2.0,72,0.00,,,0.00,Wunderground v.1.12,2013-12-19 03:41:00,
2013-12-18 22:46:00,25.5,17.7,30.15,SW,219,0.0,0.0,72,0.00,,,0.00,Wunderground v.1.12,2013-12-19 03:46:00,
2013-12-18 22:51:00,25.4,17.6,30.15,SW,215,0.0,1.0,72,0.00,,,0.00,Wunderground v.1.12,2013-12-19 03:51:00,
2013-12-18 22:56:00,25.3,17.9,30.16,SE,142,2.0,2.0,73,0.00,,,0.00,Wunderground v.1.12,2013-12-19 03:56:00,
2013-12-18 23:01:00,25.4,17.9,30.16,SW,215,0.0,2.0,73,0.00,,,0.00,Wunderground v.1.12,2013-12-19 04:01:00,
2013-12-18 23:06:00,25.4,17.9,30.16,South,180,1.0,1.0,73,0.00,,,0.00,Wunderground v.1.12,2013-12-19 04:06:00,
2013-12-18 23:11:00,25.5,18.0,30.16,SSW,196,1.0,1.0,73,0.00,,,0.00,Wunderground v.1.12,2013-12-19 04:11:00,
2013-12-18 23:16:00,25.5,18.4,30.16,SSW,211,1.0,1.0,74,0.00,,,0.00,Wunderground v.1.12,2013-12-19 04:16:00,
2013-12-18 23:21:00,25.5,18.4,30.16,SSW,192,1.0,1.0,74,0.00,,,0.00,Wunderground v.1.12,2013-12-19 04:21:00,
2013-12-18 23:26:00,25.5,18.4,30.16,West,265,0.0,1.0,74,0.00,,,0.00,Wunderground v.1.12,2013-12-19 04:26:00,
2013-12-18 23:31:00,25.6,18.5,30.16,South,174,1.0,2.0,74,0.00,,,0.00,Wunderground v.1.12,2013-12-19 04:31:00,
2013-12-18 23:36:00,25.6,18.5,30.16,ESE,109,2.0,2.0,74,0.00,,,0.00,Wunderground v.1.12,2013-12-19 04:36:00,
2013-12-18 23:41:00,25.7,18.2,30.17,South,182,1.0,2.0,73,0.00,,,0.00,Wunderground v.1.12,2013-12-19 04:41:00,
2013-12-18 23:46:00,25.7,18.2,30.17,South,185,1.0,1.0,73,0.00,,,0.00,Wunderground v.1.12,2013-12-19 04:46:00,
2013-12-18 23:51:00,25.7,18.2,30.17,SSW,212,0.0,2.0,73,0.00,,,0.00,Wunderground v.1.12,2013-12-19 04:51:00,
2013-12-18 23:56:00,25.7,18.2,30.16,SW,226,0.0,1.0,73,0.00,,,0.00,Wunderground v.1.12,2013-12-19 04:56:00,